DL3NBY Weather Reports


time (UTC)temp
F
wind
direction
speed
knots
gust
knots
rain 1hr
in
rain 24hr
in
rain mn
in
humidity
%
barometer
mb
20260906005054 47 0.0 0.0 0.00 0.05 0.00 99 1024.9
20260906003108 47 0.0 0.0 0.00 0.05 0.00 99 1025.0
20260906002045 47 0.0 0.0 0.00 0.05 0.00 99 1024.9
20260906001042 47 0.0 0.0 0.00 0.05 0.00 99 1024.8
20260906000039 47 0.0 0.0 0.00 0.05 0.00 99 1024.9
20260905233029 49 0.0 0.0 0.00 0.05 0.00 98 1024.6
20260905231023 50 0.0 0.0 0.00 0.05 0.00 97 1024.5
20260905230020 51 0.0 0.0 0.00 0.05 0.00 97 1024.3
20260905225016 51 0.0 0.0 0.00 0.05 0.00 97 1024.2
20260905224113 50 0.0 0.0 0.00 0.05 0.00 98 1024.2
20260905222107 49 0.0 0.0 0.00 0.05 0.00 97 1024.0
20260905221104 50 0.0 0.0 0.00 0.05 0.00 96 1023.8
20260905215057 51 0.0 0.0 0.00 0.05 0.05 95 1023.7
20260905214054 51 0.0 0.0 0.00 0.05 0.05 94 1023.8
20260905213051 51 0.0 0.0 0.00 0.05 0.05 93 1023.7
20260905212108 51 0.0 0.0 0.00 0.05 0.05 94 1023.6
20260905211045 51 0.0 0.0 0.00 0.05 0.05 93 1023.5
20260905205039 51 0.0 0.0 0.00 0.05 0.05 93 1023.5
20260905204035 51 0.0 0.0 0.00 0.05 0.05 94 1023.4
20260905202029 53 0.0 0.0 0.00 0.05 0.05 92 1023.1
20260905201026 53 0.0 0.0 0.00 0.05 0.05 90 1023.2
20260905200043 53 0.0 0.0 0.00 0.05 0.05 89 1023.2
20260905195020 53 0.0 0.0 0.00 0.05 0.05 89 1023.0
20260905194037 52 0.0 1.7 0.00 0.05 0.05 91 1022.9
20260905193113 53 0.0 0.0 0.00 0.05 0.05 89 1022.9
20260905192130 55 0.0 0.0 0.00 0.05 0.05 85 1022.8
20260905191107 57 0.0 0.0 0.00 0.05 0.05 83 1022.7
20260905190105 58 0.0 0.0 0.00 0.05 0.05 79 1022.7
20260905185101 60 0.0 0.0 0.00 0.05 0.05 78 1022.7
20260905183054 63 0.0 1.7 0.00 0.05 0.05 67 1022.5
20260905182052 63 270 0.0 1.7 0.00 0.05 0.05 64 1022.4
20260905181048 64 0.0 1.7 0.00 0.05 0.05 64 1022.2
20260905180045 65 180 0.0 1.7 0.00 0.05 0.05 63 1022.1
20260905175042 65 180 0.0 1.7 0.00 0.05 0.05 61 1021.9
20260905174059 66 157 0.0 2.6 0.00 0.05 0.05 61 1021.9
20260905173035 67 225 0.0 4.3 0.00 0.05 0.05 60 1021.7
20260905171029 68 196 0.9 2.6 0.00 0.05 0.05 59 1021.4
20260905170026 69 180 0.9 3.5 0.00 0.05 0.05 60 1021.4
20260905165023 69 225 0.0 3.5 0.00 0.05 0.05 58 1021.2
20260905164040 69 242 0.9 6.1 0.00 0.05 0.05 59 1021.1
20260905163017 70 180 0.9 3.5 0.00 0.05 0.05 57 1021.0
20260905162114 69 203 0.0 3.5 0.00 0.05 0.05 57 1020.9
20260905161131 69 180 0.9 3.5 0.00 0.05 0.05 56 1020.7
20260905160108 70 180 0.0 2.6 0.00 0.05 0.05 58 1020.6
20260905155105 71 225 0.9 3.5 0.00 0.05 0.05 56 1020.5
20260905153058 73 225 1.7 7.0 0.00 0.05 0.05 50 1020.4
20260905152055 74 258 1.7 7.8 0.00 0.05 0.05 51 1020.4
20260905150049 74 286 1.7 6.1 0.00 0.05 0.05 49 1020.1
20260905144042 74 208 0.9 3.5 0.00 0.05 0.05 53 1020.1
20260905143039 73 242 1.7 5.2 0.00 0.05 0.05 52 1020.0
20260905142036 73 247 2.6 7.0 0.00 0.05 0.05 54 1020.1
20260905141053 73 11 1.7 7.0 0.00 0.05 0.05 52 1020.1
20260905140050 73 246 1.7 7.0 0.00 0.05 0.05 54 1020.0
20260905135027 74 268 1.7 9.6 0.00 0.05 0.05 52 1019.9
20260905134023 73 285 1.7 6.1 0.00 0.05 0.05 54 1019.9
20260905133021 73 265 1.7 7.0 0.00 0.05 0.05 54 1019.7
20260905132037 73 259 1.7 8.7 0.00 0.05 0.05 55 1019.8
20260905131114 73 237 1.7 7.0 0.00 0.05 0.05 55 1019.8
20260905130111 73 160 0.9 7.0 0.00 0.05 0.05 58 1019.8
20260905125129 73 229 2.6 9.6 0.00 0.05 0.05 56 1019.7
20260905124104 72 260 1.7 5.2 0.00 0.05 0.05 57 1019.7
20260905122100 75 172 2.6 7.8 0.00 0.05 0.05 57 1019.6
20260905121055 75 100 1.7 13.0 0.00 0.05 0.05 55 1019.6
20260905120052 74 263 1.7 6.1 0.00 0.05 0.05 58 1019.5
20260905115049 73 225 2.6 5.2 0.00 0.05 0.05 60 1019.6
20260905114045 74 190 1.7 7.8 0.00 0.05 0.05 62 1019.5
20260905113042 73 246 1.7 7.8 0.00 0.05 0.05 61 1019.6
20260905111056 73 227 1.7 9.6 0.00 0.05 0.05 63 1019.6
20260905110033 71 252 2.6 7.8 0.00 0.05 0.05 67 1019.7
20260905105029 70 157 0.9 3.5 0.00 0.05 0.05 70 1019.8
20260905104046 71 353 0.9 5.2 0.00 0.05 0.05 72 1019.9
20260905103023 71 144 2.6 7.8 0.00 0.05 0.05 69 1019.9
20260905102020 70 218 1.7 8.7 0.00 0.05 0.05 72 1019.9
20260905101017 70 256 0.9 4.3 0.00 0.05 0.05 72 1019.8
20260905100114 69 225 0.9 7.0 0.00 0.05 0.05 73 1019.7
20260905095110 68 205 1.7 7.0 0.00 0.05 0.05 75 1019.9
20260905094128 68 250 1.7 7.0 0.00 0.05 0.05 77 1019.9
20260905093104 67 205 1.7 9.6 0.00 0.05 0.05 76 1020.0
20260905090055 66 219 1.7 6.1 0.00 0.05 0.05 81 1019.7
20260905085052 65 198 0.9 3.5 0.00 0.05 0.05 83 1019.7
20260905081041 64 225 0.9 3.5 0.00 0.05 0.05 86 1019.6
20260905075033 63 200 0.9 3.5 0.00 0.05 0.05 89 1019.6
20260905074030 63 203 0.9 4.3 0.00 0.05 0.05 90 1019.4
20260905072023 61 0.0 0.0 0.00 0.05 0.05 95 1019.4
20260905071020 61 0.0 1.7 0.00 0.05 0.05 94 1019.2
20260905070037 61 180 0.0 1.7 0.00 0.05 0.05 95 1019.2
20260905065135 60 0.0 1.7 0.00 0.05 0.05 95 1019.2
20260905064111 60 180 0.9 3.5 0.00 0.05 0.05 95 1019.2
20260905063108 60 203 2.6 4.3 0.00 0.05 0.05 95 1018.9
20260905062104 60 220 1.7 5.2 0.00 0.05 0.05 94 1018.8
20260905061121 59 216 1.7 4.3 0.00 0.05 0.05 95 1018.7
20260905060058 59 232 1.7 3.5 0.00 0.05 0.05 94 1018.5
20260905055055 59 204 0.0 1.7 0.00 0.05 0.05 95 1018.4
20260905053049 59 221 0.9 2.6 0.00 0.05 0.05 96 1018.1
20260905052046 59 193 0.9 3.5 0.00 0.05 0.05 96 1018.1
20260905051102 59 241 0.9 3.5 0.00 0.05 0.05 96 1018.0
20260905050039 58 185 0.9 4.3 0.00 0.05 0.05 96 1018.0
20260905045036 58 225 0.9 2.6 0.00 0.05 0.05 96 1017.9
20260905044033 58 225 0.9 3.5 0.00 0.05 0.05 96 1017.7
20260905043029 58 210 1.7 3.5 0.00 0.05 0.05 96 1017.5
20260905042026 58 0.0 1.7 0.00 0.05 0.05 96 1017.2
20260905041023 58 180 0.9 2.6 0.00 0.05 0.05 97 1017.1
20260905040020 57 240 0.0 1.7 0.00 0.05 0.05 99 1017.2
20260905035057 56 0.0 1.7 0.00 0.05 0.05 99 1017.2
20260905034114 57 0.0 1.7 0.00 0.05 0.05 99 1017.0
20260905033111 58 0.0 0.0 0.00 0.05 0.05 99 1017.0
20260905032108 58 0.0 1.7 0.00 0.05 0.05 99 1017.0
20260905031105 58 0.0 0.0 0.00 0.05 0.05 98 1016.9
20260905025059 57 0.0 0.9 0.00 0.05 0.05 99 1016.7
20260905024055 57 0.0 0.0 0.00 0.05 0.05 99 1016.7
20260905022049 58 207 0.9 3.5 0.04 0.05 0.05 99 1016.4
20260905015039 58 180 0.0 1.7 0.05 0.05 0.05 97 1016.8
20260905014036 58 0.0 0.0 0.05 0.05 0.05 97 1016.5
20260905013033 59 0.0 1.7 0.04 0.04 0.04 95 1016.5
20260905012030 60 0.0 0.0 0.01 0.01 0.01 93 1016.3
20260905010024 63 0.0 0.0 0.00 0.00 0.00 81 1016.3